Wind_Speed
7 7 7 7 6 7 8 8 8 7 6 6 6 6 6 6 5 6 6 6 6 6 6 6 5 6 6 6 6 5 5 5 5 5 5 5 5 5 5 5 5 6 6
6 7 6 6 6 7 7 7 7 6 7 7 7 7 6 6 6 6 6 6 7 6 6 7 6 6 6 6 6 6 5 6 6 6 7 6 6 6 6 6 6 6 5
6 7 7 6 6 7 7 6 6 6 5 6 6 7 6 5 6 6 6 7 7 7 7 8 7 7 7 7 7 7 6 6 6 7 7 8 8 8 8 8 8 7 7
5 6 6 6 6 5 6 6 5 5 5 5 6 6 6 6 6 6 6 7 7 7 8 7 7 7 7 8 8 8 8 7 7 8 8 9 9 9 9 9 9 8 8
5 5 5 5 5 5 5 4 4 4 5 5 6 6 7 7 7 7 7 7 8 8 8 7 6 7 8 9 8 8 9 9 9 9 9 10 10 10 10 9 9 9 9
6 5 4 4 4 4 4 4 3 3 3 4 5 5 7 8 7 6 6 7 8 8 7 6 7 7 8 9 9 8 9 9 9 10 10 10 10 10 9 9 10 10 10
5 4 3 2 3 3 3 3 3 3 4 4 4 4 4 5 6 5 6 7 7 6 7 7 8 9 9 10 9 9 9 10 10 10 10 10 10 10 10 10 11 11 11
4 4 3 2 1 2 2 2 3 3 3 4 4 4 4 4 5 5 5 5 6 6 7 8 9 10 11 10 10 10 10 10 11 11 11 11 11 11 12 12 12 12 12
4 4 3 3 2 1 1 2 2 3 3 3 4 4 4 5 5 5 5 6 6 7 8 9 10 10 11 10 10 11 11 11 11 11 11 11 11 12 12 13 13 14 14
3 3 3 3 2 1 1 1 2 3 3 3 4 3 3 4 4 5 5 6 7 8 8 8 9 10 11 11 11 11 11 11 12 11 11 12 13 13 13 14 14 14 15
2 2 3 2 2 1 1 2 2 2 3 3 3 3 4 5 5 5 5 7 8 8 9 9 9 10 11 11 11 11 12 12 12 11 11 12 12 13 14 14 15 15 16
2 2 2 2 2 2 2 2 3 2 3 3 4 4 4 6 6 7 6 7 8 9 9 10 10 11 11 11 12 12 12 12 13 13 13 13 13 14 15 15 15 16 16
3 3 3 3 3 3 4 4 3 3 4 4 4 5 5 6 7 7 7 7 9 10 10 10 10 11 11 12 13 13 13 13 14 14 14 15 15 16 17 17 17 17 18
4 5 5 4 5 5 5 5 5 5 5 5 5 6 6 7 7 8 8 9 9 10 10 11 11 12 12 12 13 14 13 14 14 15 15 15 16 17 17 18 18 18 18
5 6 6 6 6 6 6 7 7 7 7 7 7 7 8 9 9 10 10 10 11 10 10 11 12 13 13 13 14 15 15 15 16 16 17 17 17 18 18 19 20 20 20
6 7 7 8 8 8 8 9 9 9 10 9 9 9 10 10 11 12 13 13 13 13 13 13 14 14 15 15 16 16 16 16 17 18 19 19 18 18 19 19 19 20 20
8 9 9 10 10 10 10 10 11 11 11 11 11 11 12 13 13 14 15 15 16 16 16 16 17 17 17 17 17 18 19 19 18 19 19 20 20 19 20 20 20 21 22
10 11 11 11 11 12 12 12 12 13 13 13 13 13 14 15 15 16 16 17 17 18 18 18 18 19 19 20 20 20 20 20 21 21 21 22 21 21 21 21 22 23 23
12 13 13 12 12 13 13 14 14 15 15 15 15 16 17 17 17 18 18 18 19 19 19 19 20 20 20 21 21 22 22 22 23 23 23 23 23 23 23 23 23 24 24
14 15 14 14 14 14 15 16 16 17 17 17 17 17 18 19 19 20 20 21 21 21 22 22 22 22 22 23 23 23 24 24 24 24 24 24 24 25 25 25 25 25 25
16 17 17 17 17 17 17 18 18 19 19 19 19 19 20 20 21 22 22 22 23 23 24 24 24 24 24 24 25 25 25 25 25 25 26 26 26 27 27 27 27 26 26
18 19 19 19 20 20 20 20 20 20 21 21 21 22 22 23 23 23 24 24 24 24 24 25 25 25 25 25 26 26 27 27 26 27 28 27 28 28 29 29 29 28 28
20 21 22 22 23 23 22 21 22 22 23 23 23 23 24 25 25 26 25 25 25 26 26 27 27 26 27 27 27 27 27 27 28 28 29 28 29 29 29 29 29 29 28
23 24 24 24 25 24 24 24 24 25 26 26 25 25 25 26 27 27 27 27 27 27 27 28 28 29 29 29 29 29 29 29 29 29 30 31 31 31 31 31 31 30 30
25 25 26 25 25 25 26 26 27 27 27 27 26 26 27 27 28 28 28 28 28 29 29 29 30 31 31 31 32 31 31 31 31 31 32 32 32 33 32 32 32 32 31
27 27 27 27 27 27 28 29 29 29 29 29 29 28 29 29 29 29 30 30 29 30 31 31 31 31 31 32 33 33 33 33 33 32 33 34 34 34 34 33 34 34 33
Wind_Direction
147 145 150 154 155 159 173 180 182 186 193 194 195 198 197 193 190 201 208 219 221 225 232 236 240 238 238 235 241 243 252 259 248 246 248 252 258 267 274 273 269 271 275
140 143 146 147 145 151 159 168 175 182 193 195 195 196 195 198 198 207 218 223 220 228 238 240 242 248 242 244 247 246 254 261 254 255 257 259 264 267 273 276 275 277 281
138 148 145 143 144 154 164 171 175 185 197 202 202 199 200 201 201 213 225 224 224 231 238 239 240 248 246 252 253 250 251 254 257 260 261 263 266 267 271 274 268 270 274
130 144 144 144 146 156 170 183 184 187 197 207 208 207 212 218 222 226 233 237 242 245 245 238 247 247 248 254 257 253 251 254 260 263 265 265 267 269 269 270 266 271 274
121 135 135 136 146 152 161 171 174 186 200 211 221 226 231 231 232 243 243 245 243 242 239 244 245 246 251 254 256 254 253 256 261 263 266 266 269 268 265 263 267 271 275
110 112 116 124 134 143 157 166 173 185 208 219 221 227 232 233 231 236 242 238 234 242 245 249 252 256 257 258 255 256 255 258 261 266 267 268 268 265 265 267 270 271 275
92 97 104 116 132 144 168 180 192 209 224 232 231 238 244 246 237 238 238 239 245 247 248 255 260 261 262 261 256 255 253 257 261 264 265 264 263 264 267 269 270 272 276
89 91 90 94 130 154 179 198 213 222 233 246 255 261 256 251 253 259 258 256 252 248 248 254 261 262 262 261 256 254 256 259 259 263 266 266 264 263 265 266 268 270 273
80 74 70 72 92 117 208 236 240 249 266 269 270 275 268 266 268 267 263 263 260 258 260 264 263 263 266 261 260 261 261 262 261 264 266 266 266 267 268 269 271 271 272
67 69 58 52 55 66 18 309 292 290 289 287 287 279 277 282 282 277 275 265 265 267 272 276 277 274 270 265 265 266 264 263 261 263 266 268 268 271 273 274 275 275 274
45 41 34 32 33 26 350 322 318 315 310 304 303 294 285 279 280 279 276 270 273 275 276 275 278 279 278 271 267 267 269 265 264 264 268 272 273 273 274 275 278 279 279
11 4 5 353 333 318 310 315 314 310 305 302 304 302 300 295 288 282 273 269 275 281 285 281 282 280 280 276 271 268 269 270 269 269 271 271 273 275 277 278 281 283 282
359 352 336 321 317 312 308 304 303 299 298 299 298 296 295 294 293 290 284 282 281 282 286 284 282 281 280 280 274 271 270 273 274 273 274 273 274 276 277 278 281 283 283
343 338 330 315 305 304 298 291 294 295 299 296 297 298 299 299 298 296 290 291 286 283 280 281 283 284 282 279 275 274 270 273 274 272 276 276 276 278 278 278 281 282 283
323 325 329 318 307 299 298 288 291 290 293 293 293 292 296 298 295 294 291 290 287 279 276 281 281 283 281 277 277 276 273 273 273 275 277 279 279 279 279 278 279 280 280
304 307 308 305 300 295 293 287 284 286 287 287 289 286 285 288 290 289 288 287 286 283 280 279 278 279 278 276 278 277 276 276 276 276 277 277 277 279 279 278 280 280 279
295 298 300 297 294 293 288 285 287 288 287 286 287 286 287 288 288 287 286 286 285 284 282 280 278 277 277 279 279 277 275 276 275 277 278 277 277 278 279 280 282 282 282
288 292 294 293 290 287 286 286 285 284 285 286 285 286 286 287 288 287 286 285 284 284 283 282 281 279 277 277 277 278 277 276 276 277 276 276 278 279 280 281 282 284 285
281 285 289 289 288 287 287 285 286 285 284 285 285 284 284 285 286 287 287 286 284 283 283 283 283 281 278 277 277 276 276 275 276 276 276 275 277 278 278 279 282 285 285
281 280 281 283 284 285 286 286 285 284 284 285 286 285 283 283 283 283 284 283 282 281 282 282 283 283 281 279 278 277 275 275 276 275 274 276 276 277 277 278 280 281 281
282 280 280 282 281 281 282 282 282 282 284 284 285 286 285 285 283 282 281 281 281 281 281 281 282 281 281 280 278 278 278 276 276 274 274 275 275 275 276 277 278 278 279
280 279 280 281 280 279 278 279 281 281 281 281 284 286 286 286 285 284 282 281 281 282 283 282 281 281 281 280 278 278 278 277 275 274 274 275 276 276 276 276 277 277 277
279 279 279 279 279 278 278 280 281 279 280 280 282 283 283 283 285 286 287 284 284 283 282 282 281 282 281 280 279 279 279 277 277 277 275 276 277 278 277 276 276 277 276
278 277 278 279 277 277 278 278 279 280 280 280 280 280 281 281 283 284 286 286 285 284 283 282 281 280 281 280 280 280 281 281 279 278 277 275 276 277 276 275 276 276 276
278 278 277 277 277 277 277 278 278 278 279 280 281 281 283 284 282 283 284 284 284 284 283 282 281 280 280 281 281 281 280 280 280 280 278 277 275 274 275 275 274 274 274
276 277 276 276 277 277 276 277 278 276 277 279 280 282 283 284 284 283 284 284 284 284 284 283 283 282 281 280 280 280 281 281 281 280 280 279 277 275 273 273 273 273 274
Height
5881 5882 5883 5883 5884 5884 5885 5887 5889 5891 5892 5893 5894 5895 5895 5896 5896 5897 5897 5898 5899 5899 5900 5900 5900 5901 5900 5901 5901 5901 5901 5900 5900 5900 5899 5899 5899 5898 5899 5898 5898 5897 5897
5882 5883 5884 5884 5885 5885 5886 5887 5889 5891 5892 5893 5894 5894 5895 5895 5896 5896 5897 5897 5897 5898 5898 5899 5899 5899 5899 5899 5899 5899 5899 5899 5899 5898 5898 5898 5898 5897 5897 5897 5896 5896 5896
5883 5884 5885 5886 5886 5887 5888 5888 5890 5891 5892 5893 5893 5894 5894 5895 5895 5896 5896 5896 5896 5897 5897 5897 5897 5897 5898 5898 5898 5898 5897 5897 5897 5897 5897 5896 5896 5896 5896 5895 5894 5894 5894
5884 5885 5886 5887 5887 5888 5889 5889 5890 5891 5892 5892 5893 5893 5893 5894 5894 5894 5895 5895 5895 5895 5895 5895 5896 5896 5896 5896 5896 5896 5896 5896 5895 5895 5895 5894 5894 5894 5893 5893 5893 5892 5892
5886 5886 5887 5887 5888 5888 5889 5890 5891 5891 5891 5892 5892 5892 5892 5893 5893 5893 5893 5893 5894 5894 5894 5894 5894 5895 5895 5894 5894 5894 5894 5894 5893 5893 5892 5892 5892 5891 5891 5891 5890 5890 5890
5887 5888 5888 5888 5889 5889 5890 5890 5891 5891 5891 5892 5891 5891 5891 5892 5892 5892 5892 5892 5892 5892 5892 5892 5893 5893 5893 5892 5891 5891 5892 5891 5891 5891 5890 5890 5889 5889 5889 5888 5888 5888 5887
5888 5889 5889 5889 5890 5890 5890 5890 5891 5891 5891 5891 5891 5891 5891 5891 5891 5891 5891 5891 5891 5891 5891 5891 5890 5890 5890 5890 5889 5889 5889 5889 5889 5888 5888 5887 5887 5887 5886 5886 5886 5885 5885
5889 5889 5890 5890 5890 5890 5890 5890 5890 5890 5890 5890 5890 5890 5890 5890 5890 5889 5889 5889 5889 5890 5889 5889 5888 5888 5888 5887 5887 5887 5886 5886 5886 5886 5885 5885 5884 5884 5884 5883 5883 5882 5882
5890 5890 5890 5890 5890 5890 5890 5890 5890 5890 5889 5889 5889 5889 5889 5889 5889 5889 5888 5888 5888 5888 5887 5886 5886 5885 5885 5885 5884 5884 5884 5883 5883 5883 5882 5882 5881 5881 5880 5880 5879 5879 5878
5891 5891 5890 5890 5890 5890 5890 5889 5889 5889 5888 5888 5888 5888 5888 5888 5888 5887 5887 5886 5886 5886 5886 5885 5884 5883 5883 5882 5882 5881 5881 5880 5880 5880 5879 5879 5878 5877 5877 5876 5876 5875 5874
5891 5890 5890 5890 5889 5889 5889 5888 5888 5888 5887 5887 5887 5886 5886 5886 5886 5886 5885 5885 5884 5884 5884 5883 5882 5881 5880 5879 5879 5879 5878 5878 5877 5877 5876 5876 5875 5874 5873 5873 5872 5871 5870
5890 5890 5890 5889 5889 5888 5888 5887 5887 5886 5886 5886 5885 5884 5884 5884 5884 5883 5883 5882 5882 5881 5881 5880 5879 5878 5877 5877 5876 5876 5875 5874 5874 5873 5873 5872 5871 5870 5870 5869 5868 5867 5866
5890 5889 5889 5888 5888 5887 5886 5886 5886 5885 5884 5884 5883 5883 5882 5882 5881 5881 5880 5880 5879 5879 5878 5877 5876 5875 5875 5874 5873 5872 5871 5871 5870 5870 5869 5868 5867 5866 5865 5864 5863 5862 5861
5888 5888 5887 5887 5886 5886 5885 5884 5884 5883 5883 5882 5881 5881 5880 5879 5879 5878 5878 5877 5876 5876 5875 5874 5873 5872 5871 5870 5869 5869 5868 5867 5866 5866 5865 5863 5863 5861 5860 5859 5858 5857 5856
5887 5886 5886 5885 5884 5884 5883 5882 5882 5881 5880 5880 5879 5878 5877 5876 5876 5875 5874 5874 5874 5873 5872 5871 5869 5868 5867 5866 5865 5864 5864 5863 5862 5861 5860 5859 5858 5857 5855 5854 5853 5852 5851
5885 5885 5884 5883 5882 5881 5880 5880 5879 5878 5878 5877 5876 5875 5874 5873 5872 5872 5871 5870 5869 5869 5868 5867 5866 5864 5862 5861 5860 5860 5859 5858 5857 5856 5855 5854 5853 5852 5851 5849 5848 5847 5846
5883 5882 5882 5880 5879 5878 5877 5876 5876 5875 5875 5874 5873 5872 5871 5870 5869 5868 5867 5866 5865 5864 5863 5862 5861 5859 5858 5857 5855 5854 5853 5853 5852 5851 5850 5848 5848 5846 5845 5844 5843 5841 5840
5880 5879 5878 5877 5876 5875 5874 5873 5872 5871 5871 5870 5869 5868 5867 5866 5864 5863 5862 5861 5860 5859 5858 5857 5856 5854 5853 5851 5850 5849 5848 5847 5846 5845 5844 5842 5841 5840 5839 5838 5837 5835 5834
5876 5875 5875 5874 5873 5871 5870 5869 5868 5867 5866 5865 5864 5863 5862 5861 5860 5858 5857 5856 5854 5853 5852 5851 5850 5848 5847 5846 5844 5843 5842 5841 5839 5838 5837 5836 5835 5834 5833 5832 5830 5829 5828
5872 5871 5870 5870 5869 5867 5866 5865 5863 5862 5861 5860 5859 5858 5856 5855 5854 5853 5851 5850 5848 5847 5846 5845 5844 5842 5841 5839 5838 5836 5835 5834 5832 5831 5830 5829 5828 5827 5826 5825 5824 5822 5821
5867 5866 5865 5864 5863 5862 5861 5860 5858 5857 5856 5854 5853 5852 5851 5849 5847 5846 5845 5843 5841 5840 5839 5838 5836 5835 5833 5832 5830 5828 5827 5826 5825 5823 5822 5821 5820 5819 5818 5817 5816 5815 5814
5861 5860 5859 5858 5857 5856 5855 5854 5853 5851 5850 5848 5847 5845 5844 5842 5841 5839 5837 5836 5834 5833 5831 5830 5829 5827 5826 5824 5822 5821 5819 5818 5817 5816 5814 5813 5812 5810 5809 5808 5807 5806 5805
5855 5854 5853 5852 5851 5850 5848 5847 5846 5845 5843 5842 5840 5838 5837 5835 5834 5832 5830 5828 5827 5825 5823 5822 5820 5819 5817 5816 5814 5813 5811 5810 5809 5807 5805 5805 5803 5802 5800 5799 5798 5797 5796
5848 5847 5846 5845 5843 5842 5841 5840 5839 5837 5836 5834 5832 5831 5829 5828 5826 5824 5823 5821 5819 5817 5815 5813 5812 5811 5809 5807 5805 5804 5802 5801 5800 5798 5796 5796 5795 5793 5791 5790 5789 5789 5788
5841 5839 5838 5837 5836 5835 5833 5832 5830 5829 5827 5826 5825 5823 5821 5819 5818 5816 5814 5813 5811 5809 5807 5805 5803 5802 5800 5798 5796 5794 5793 5791 5790 5789 5787 5786 5785 5783 5782 5781 5780 5779 5779
5832 5831 5830 5829 5827 5826 5825 5823 5822 5821 5819 5818 5816 5815 5813 5811 5809 5807 5805 5804 5802 5800 5798 5796 5794 5792 5790 5788 5786 5784 5783 5781 5780 5779 5777 5775 5774 5772 5772 5772 5770 5769 5769